{"data":{"norad_id":49333,"epoch":"2026-05-24T17:41:33.273888Z","epoch_age_seconds":97680,"freshness":"FRESH","line1":"1 49333U 21095B   26144.73719067  .00000131  00000+0  00000+0 0  9999","line2":"2 49333   0.0114 335.8092 0001482  84.9093 132.4993  1.00271121 17710","mean_motion":1.00271121,"eccentricity":0.0001482,"inclination_deg":0.0114,"raan_deg":335.8092,"arg_perigee_deg":84.9093,"mean_anomaly_deg":132.4993,"bstar":0,"rev_number":1771,"period_min":1436.1064139295,"perigee_km":35780.532264659,"apogee_km":35793.029946385,"semimajor_km":42164.918105522,"source":"CELESTRAK","updated_at":"2026-05-25T13:38:14.103010Z"}}